48 Hour Max Wind (MPH) Per Hour History for Toms River, NJ

Daily Weather Archive for Toms River, NJ

Today's Weather Summary

Current Weather Observations

Today's Max Wind Per Hour

Yesterday's Max Wind Per Hou


Today's Max Wind Speed Per Hour

 

Yesterday's Max Wind Speed Per Hour

Hour (24)  Reading Date & Time  Max Wind Speed Per Hr
011/29/2022 - 12:53:01 AM2
111/29/2022 - 1:53:01 AM2
211/29/2022 - 2:53:01 AM3
311/29/2022 - 3:53:01 AM2
411/29/2022 - 4:53:01 AM1
511/29/2022 - 5:53:01 AM2
611/29/2022 - 6:53:04 AM2
711/29/2022 - 7:53:01 AM1
811/29/2022 - 8:53:01 AM2
911/29/2022 - 9:53:01 AM3
1011/29/2022 - 10:53:01 AM5
1111/29/2022 - 11:53:01 AM4
1211/29/2022 - 12:53:01 PM7
1311/29/2022 - 1:53:01 PM4
1400
1500
1600
1700
1800
1900
2000
2100
2200
2300
 
Hour (24)  Reading Date & Time  Max Wind/Hr
011/28/2022 - 12:53:04 AM8
111/28/2022 - 1:53:01 AM13
211/28/2022 - 2:53:01 AM8
311/28/2022 - 3:53:01 AM9
411/28/2022 - 4:53:01 AM9
511/28/2022 - 5:53:01 AM7
611/28/2022 - 6:53:01 AM6
711/28/2022 - 7:53:01 AM9
811/28/2022 - 8:53:01 AM10
911/28/2022 - 9:53:01 AM10
1011/28/2022 - 10:53:01 AM10
1111/28/2022 - 11:53:01 AM11
1211/28/2022 - 12:53:01 PM12
1311/28/2022 - 1:53:01 PM9
1411/28/2022 - 2:53:04 PM9
1511/28/2022 - 3:53:01 PM8
1611/28/2022 - 4:53:01 PM8
1711/28/2022 - 5:53:02 PM7
1811/28/2022 - 6:53:01 PM5
1911/28/2022 - 7:53:01 PM6
2011/28/2022 - 8:53:01 PM5
2111/28/2022 - 9:53:01 PM4
2211/28/2022 - 10:53:03 PM2
2311/28/2022 - 11:53:01 PM2